カタログに戻る

COSMOS 2125

運用中軍事LEO
NORAD 21100·PAYLOAD·🇷🇺 Russia

打ち上げ Feb 12, 1991 から Plesetsk Cosmodrome

Loading…

次のパス (今後24時間)

TLE

最新Source: Space-Track

元期: Sep 14, 2026, 13:52 UTC

1 21100U 91009A   26257.57794079 -.00000011  00000-0  28449-4 0  9997
2 21100  74.0299 201.6516 0009306  61.9078  50.8608 12.49967944623909

AllMySatでCOSMOS 2125をリアルタイム追跡

Download on the App Store